TimeEST,TemperatureF,Dew PointF,Humidity,Sea Level PressureIn,VisibilityMPH,Wind Direction,Wind SpeedMPH,Gust SpeedMPH,PrecipitationIn,Events,Conditions,WindDirDegrees,DateUTC
12:53 AM,30.0,21.0,69,30.30,10.0,SW,4.6,-,N/A,,Clear,230,2012-11-29 05:53:00
1:53 AM,28.9,21.9,75,30.30,10.0,SW,6.9,-,N/A,,Clear,230,2012-11-29 06:53:00
2:53 AM,28.9,21.9,75,30.31,10.0,SW,6.9,-,N/A,,Clear,230,2012-11-29 07:53:00
3:53 AM,28.9,21.9,75,30.31,10.0,WSW,6.9,-,N/A,,Clear,240,2012-11-29 08:53:00
4:53 AM,32.0,21.9,66,30.31,10.0,WSW,5.8,-,N/A,,Overcast,250,2012-11-29 09:53:00
5:53 AM,33.1,24.1,70,30.30,10.0,SW,5.8,-,N/A,,Mostly Cloudy,230,2012-11-29 10:53:00
6:53 AM,34.0,24.1,67,30.30,10.0,SW,11.5,-,N/A,,Mostly Cloudy,230,2012-11-29 11:53:00
7:53 AM,35.1,24.1,64,30.31,10.0,WSW,10.4,-,N/A,,Overcast,240,2012-11-29 12:53:00
8:53 AM,36.0,25.0,64,30.30,10.0,WSW,8.1,-,N/A,,Partly Cloudy,240,2012-11-29 13:53:00
9:53 AM,37.0,25.0,62,30.31,10.0,WSW,10.4,-,N/A,,Clear,240,2012-11-29 14:53:00
10:53 AM,41.0,25.0,53,30.30,10.0,WSW,11.5,-,N/A,,Clear,250,2012-11-29 15:53:00
11:53 AM,44.1,26.1,49,30.27,10.0,WSW,11.5,-,N/A,,Clear,240,2012-11-29 16:53:00
12:53 PM,44.1,26.1,49,30.25,10.0,WSW,10.4,-,N/A,,Clear,250,2012-11-29 17:53:00
1:53 PM,46.9,27.0,46,30.23,10.0,WSW,15.0,18.4,N/A,,Clear,240,2012-11-29 18:53:00
2:53 PM,46.9,27.0,46,30.22,10.0,SW,9.2,-,N/A,,Clear,230,2012-11-29 19:53:00
3:53 PM,46.0,27.0,47,30.22,10.0,WSW,10.4,-,N/A,,Clear,240,2012-11-29 20:53:00
4:53 PM,44.1,27.0,51,30.21,10.0,SW,8.1,-,N/A,,Clear,220,2012-11-29 21:53:00
5:53 PM,42.1,27.0,55,30.23,10.0,SW,6.9,-,N/A,,Clear,220,2012-11-29 22:53:00
6:53 PM,41.0,27.0,57,30.24,10.0,SW,5.8,-,N/A,,Clear,220,2012-11-29 23:53:00
7:53 PM,37.0,27.0,67,30.25,10.0,Calm,Calm,-,N/A,,Clear,0,2012-11-30 00:53:00
8:53 PM,36.0,28.0,73,30.25,10.0,South,3.5,-,N/A,,Clear,170,2012-11-30 01:53:00
9:53 PM,35.1,28.0,76,30.25,10.0,Calm,Calm,-,N/A,,Clear,0,2012-11-30 02:53:00
10:53 PM,35.1,30.0,82,30.25,9.0,Calm,Calm,-,N/A,,Clear,0,2012-11-30 03:53:00
11:53 PM,33.1,28.9,85,30.25,9.0,Calm,Calm,-,N/A,,Clear,0,2012-11-30 04:53:00